Massena, NY
on Thursday, December 7, 2017

Thursday
       
Previous Day Next Day
Daily Summary
 ActualAverageRecord
Temperature
Mean Temperature °F °C 26°F -3°C  
Max Temperature 36°F 2°C 34°F 1°C 65°F 18°C (1998)
Min Temperature 31°F -1°C 18°F -8°C -7°F -21°C (2000)
Degree Days
Heating Degree Days 31 39  
Month to date heating degree days 192 264  
Since 1 July heating degree days 1591 2033  
Cooling Degree Days 0 0  
Month to date cooling degree days 0 0  
Year to date cooling degree days 399 363  
Moisture
Dew Point 22°F -6°C   
Average Humidity 67    
Maximum Humidity 82    
Minimum Humidity 52    
Precipitation
Precipitation 0.00 in / 0.00 cm 0.08 in / 2.03 cm 0.94 in / 2.39 cm (1966)
Month to date precipitation 0.21 0.60  
Year to date precipitation 38.26 33.13  
Wind
Wind Speed 12 mph / 19 km/h   
Max Wind Speed 18 mph / 29 km/h   
Max Gust Speed 30 mph / 48 km/h   
Visibility 10 miles / 16 kilometers   
Events     

Key: T is trace of precipitation, MM is missing value
Source: NWS Daily Summary
Time(EST)TemperatureDew PointHumidity Pressure Visibility Wind DirectionWind SpeedGust SpeedPrecipitationEvents Conditions
12:53 AM 35.1°F 1.7°C 26.1°F -3.3°C 70% 29.80 in / 1008.9 hPa 10.0 miles / 16.1 kilometers WSW 19.6 mph / 31.5 km/h 24.2 mph / 38.9 km/h N/A   Overcast
1:53 AM 35.1°F 1.7°C 23.0°F -5.0°C 61% 29.82 in / 1009.6 hPa 10.0 miles / 16.1 kilometers West 17.3 mph / 27.8 km/h 31.1 mph / 50.0 km/h N/A   Overcast
2:53 AM 33.1°F 0.6°C 23.0°F -5.0°C 66% 29.84 in / 1010.3 hPa 10.0 miles / 16.1 kilometers West 10.4 mph / 16.7 km/h - N/A   Mostly Cloudy
3:53 AM 33.1°F 0.6°C 21.9°F -5.6°C 64% 29.84 in / 1010.5 hPa 10.0 miles / 16.1 kilometers WSW 9.2 mph / 14.8 km/h - N/A   Overcast
4:53 AM 33.1°F 0.6°C 23.0°F -5.0°C 66% 29.85 in / 1010.7 hPa 10.0 miles / 16.1 kilometers WSW 9.2 mph / 14.8 km/h - N/A   Overcast
5:53 AM 32.0°F 0.0°C 21.9°F -5.6°C 66% 29.86 in / 1011.0 hPa 10.0 miles / 16.1 kilometers WSW 12.7 mph / 20.4 km/h 19.6 mph / 31.5 km/h N/A   Partly Cloudy
6:53 AM 30.9°F -0.6°C 21.9°F -5.6°C 69% 29.88 in / 1011.6 hPa 10.0 miles / 16.1 kilometers SW 10.4 mph / 16.7 km/h - N/A   Overcast
7:53 AM 30.9°F -0.6°C 23.0°F -5.0°C 72% 29.88 in / 1011.8 hPa 10.0 miles / 16.1 kilometers WSW 8.1 mph / 13.0 km/h - N/A   Overcast
8:53 AM 32.0°F 0.0°C 23.0°F -5.0°C 69% 29.89 in / 1012.2 hPa 10.0 miles / 16.1 kilometers SW 9.2 mph / 14.8 km/h - N/A   Overcast
9:53 AM 34.0°F 1.1°C 23.0°F -5.0°C 64% 29.90 in / 1012.3 hPa 10.0 miles / 16.1 kilometers WSW 10.4 mph / 16.7 km/h - N/A   Overcast
10:53 AM 34.0°F 1.1°C 21.9°F -5.6°C 61% 29.89 in / 1012.0 hPa 10.0 miles / 16.1 kilometers WSW 10.4 mph / 16.7 km/h - N/A   Overcast
11:53 AM 35.1°F 1.7°C 21.0°F -6.1°C 57% 29.86 in / 1011.2 hPa 10.0 miles / 16.1 kilometers West 8.1 mph / 13.0 km/h - N/A   Overcast
12:53 PM 35.1°F 1.7°C 21.0°F -6.1°C 57% 29.85 in / 1010.6 hPa 10.0 miles / 16.1 kilometers WSW 10.4 mph / 16.7 km/h - N/A   Overcast
1:53 PM 36.0°F 2.2°C 21.0°F -6.1°C 55% 29.83 in / 1010.1 hPa 10.0 miles / 16.1 kilometers SW 12.7 mph / 20.4 km/h 18.4 mph / 29.6 km/h N/A   Overcast
2:53 PM 35.1°F 1.7°C 19.0°F -7.2°C 52% 29.82 in / 1009.8 hPa 10.0 miles / 16.1 kilometers WSW 15.0 mph / 24.1 km/h 19.6 mph / 31.5 km/h N/A   Overcast
3:53 PM 35.1°F 1.7°C 19.9°F -6.7°C 54% 29.83 in / 1010.0 hPa 10.0 miles / 16.1 kilometers SW 11.5 mph / 18.5 km/h - N/A   Overcast
4:53 PM 34.0°F 1.1°C 21.0°F -6.1°C 59% 29.83 in / 1009.9 hPa 10.0 miles / 16.1 kilometers SW 10.4 mph / 16.7 km/h - N/A   Overcast
5:53 PM 34.0°F 1.1°C 19.9°F -6.7°C 56% 29.84 in / 1010.3 hPa 10.0 miles / 16.1 kilometers SW 15.0 mph / 24.1 km/h - N/A   Mostly Cloudy
6:53 PM 34.0°F 1.1°C 21.0°F -6.1°C 59% 29.85 in / 1010.8 hPa 10.0 miles / 16.1 kilometers WSW 9.2 mph / 14.8 km/h - N/A   Overcast
7:53 PM 33.1°F 0.6°C 19.9°F -6.7°C 59% 29.86 in / 1011.2 hPa 10.0 miles / 16.1 kilometers WSW 8.1 mph / 13.0 km/h - N/A   Overcast
8:53 PM 33.1°F 0.6°C 21.0°F -6.1°C 61% 29.87 in / 1011.3 hPa 10.0 miles / 16.1 kilometers WSW 15.0 mph / 24.1 km/h - N/A   Overcast
9:53 PM 32.0°F 0.0°C 21.0°F -6.1°C 64% 29.88 in / 1011.7 hPa 10.0 miles / 16.1 kilometers WSW 13.8 mph / 22.2 km/h 21.9 mph / 35.2 km/h N/A   Overcast
10:53 PM 30.9°F -0.6°C 21.0°F -6.1°C 67% 29.89 in / 1012.0 hPa 10.0 miles / 16.1 kilometers SW 11.5 mph / 18.5 km/h 19.6 mph / 31.5 km/h N/A   Overcast
11:53 PM 30.9°F -0.6°C 21.9°F -5.6°C 69% 29.89 in / 1012.1 hPa 10.0 miles / 16.1 kilometers WSW 9.2 mph / 14.8 km/h - N/A   Overcast